sat.trackr.live / text

‹ back to catalog

STARLINK-32839

NORAD 63077 · 2025-037A

PAYLOAD ACTIVE UNKNOWN

§ Identity

Operator
Country
US
Launch date
2025-02-23
Launch site
AFWTR
Launch vehicle
Mass (kg)
RCS (m²)

Purposes: comms

External: N2YO · Heavens-Above · Gunter

§ Orbital elements

Epoch: 2026-05-25T03:43:11.174016Z

Period
96.11 min
Inclination
70.0005°
Eccentricity
0.0004104
Mean motion
14.98343287 rev/d
Perigee alt
569.2 km
Apogee alt
574.9 km
Semi-major
6,950.2 km
B*
2.4308e-4
RAAN
161.7488°
Arg perigee
265.4169°
Mean anomaly
94.6522°
Rev number
7,004

§ Raw data

STARLINK-328391 63077U 25037A   26145.15499044  .00002810  00000+0  24308-3 0  99942 63077  70.0005 161.7488 0004104 265.4169  94.6522 14.98343287 70042

JSON: /api/v1/satellites/63077 · /tle

For live sub-satellite position, see the globe view (requires WebGL).

§ Visibility from observer

Set your observer location to see the next 7 days of passes ≥ 10°. The values pass through the URL so the page stays shareable.

No JS? Fill the form by hand. The geolocation button needs JavaScript.